Regional Weather Roundup
Issued by NWS

Home | Current Version | Previous Version | Graphics & Text | Print | Product List | Glossary On
Versions: 1 2 3 4 5 6 7 8 9 10 11 12 13 14 15 16 17 18 19 20 21 22 23 24 25 26 27 28 29 30 31 32 33 34 35 36 37 38 39 40 41 42 43 44 45 46 47 48 49 50
208
ASUS43 KOAX 240002
RWRNE

WEATHER ROUNDUP FOR NEBRASKA
NATIONAL WEATHER SERVICE OMAHA NE
600 PM CST THU FEB 23 2017

NOTES: SATELLITE DATA IS BEING USED TO AUGMENT CLOUD COVER ABOVE
       12000 FEET.
       "FAIR" INDICATES FEW OR NO CLOUDS BELOW 12,000 FEET WITH NO
       SIGNIFICANT WEATHER AND/OR OBSTRUCTIONS TO VISIBILITY.

  * THESE STATIONS DO NOT REPORT WEATHER SUCH AS RAIN...SNOW OR FOG.

NEZ001>004-019>022-054>056-240100-
NEBRASKA PANHANDLE

CITY           SKY/WX    TMP DP  RH WIND       PRES   REMARKS
SCOTTSBLUFF    SNOW      23  20  88 N6        29.82R VSB 1/2 WCI  16
6HR MIN TEMP:  23; 6HR MAX TEMP:  25; 6HR PCP:  0.06;

ALLIANCE       FOG       22  19  89 N21G29    29.76R VSB 3/4 WCI   6
6HR MIN TEMP:  22; 6HR MAX TEMP:  22; 6HR PCP: TRACE;

CHADRON        CLOUDY    25  22  88 NE20G28   29.84R FOG     WCI  11
6HR MIN TEMP:  24; 6HR MAX TEMP:  26; 6HR PCP: TRACE;

KIMBALL        LGT SNOW  21  20  96 N18       29.74R VSB 1   WCI   6
SIDNEY         LGT SNOW  22  19  89 N17       29.73R VSB 3/4 WCI   8
6HR MIN TEMP:  22; 6HR MAX TEMP:  25; 6HR PCP:  0.02;

$$

NEZ057>060-069>072-079>082-240100-
SOUTHWEST NEBRASKA

CITY           SKY/WX    TMP DP  RH WIND       PRES   REMARKS
NORTH PLATTE   LGT SNOW  29  24  82 N20       29.69R VSB 1   WCI  16
6HR MIN TEMP:  29; 6HR MAX TEMP:  31; 6HR PCP:  0.03;

IMPERIAL       LGT SNOW  27  23  85 N18       29.70R VSB 1   WCI  14
6HR MIN TEMP:  27; 6HR MAX TEMP:  30; 6HR PCP:  0.05;

LEXINGTON      LGT SNOW  30  28  92 NE13      29.67R WCI  20
MCCOOK         FLURRIES  31  29  92 N16       29.67R WCI  20
6HR MIN TEMP:  31; 6HR MAX TEMP:  33; 6HR PCP: TRACE;

OGALLALA       LGT SNOW  28  24  88 NE14G20   29.73R VSB 1   WCI  16
$$

NEZ005>010-023>029-035>040-094-240100-
NORTH CENTRAL NEBRASKA

CITY           SKY/WX    TMP DP  RH WIND       PRES   REMARKS
VALENTINE      SNOW      26  22  84 N20G29    29.80R VSB 1/2 WCI  12
6HR MIN TEMP:  26; 6HR MAX TEMP:  27; 6HR PCP:  0.10;

AINSWORTH      LGT SNOW  26  26  97 N21       29.76R VSB 3/4 WCI  12
BROKEN BOW     SNOW      29  27  92 N13       29.67R VSB 1/2 WCI  19
6HR MIN TEMP:  29; 6HR MAX TEMP:  31; 6HR PCP:  0.06;

O`NEILL        HVY SNOW  29  28  97 N21       29.76R VSB 1/4 WCI  16
ORD            SNOW      29  26  89 NE17      29.64F VSB 1/2 WCI  17
6HR MIN TEMP:  29; 6HR MAX TEMP:  32; 6HR PCP:  0.10;

THEDFORD       LGT SNOW  27  25  92 N15G26    29.75R VSB 3/4 WCI  15
$$

NEZ041-046>049-061>064-073>077-083>087-240100-
SOUTH CENTRAL NEBRASKA

CITY           SKY/WX    TMP DP  RH WIND       PRES   REMARKS
GRAND ISLAND   LGT SNOW  31  31 100 NE16G23   29.66R FOG     WCI  20
6HR MIN TEMP:  31; 6HR MAX TEMP:  34; 6HR PCP:  0.06;

AURORA         MIX PCPN  32  32  99 NE16G23   29.64R WCI  21
HASTINGS       LGT SNOW  32  31  96 NE22      29.61R VSB 3/4 WCI  19
6HR MIN TEMP:  32; 6HR MAX TEMP:  35; 6HR PCP:  0.01;

HEBRON         LGT RAIN  37  36  96 N18G24    29.55R WCI  27
HOLDREGE       LGT SNOW  31  30  94 NE14      29.62R WCI  21
KEARNEY *      CLOUDY    32  28  86 NE15      29.63R WCI  22
YORK           LGT RAIN  32  32 100 N20G25    29.63R WCI  20
$$

NEZ011>018-030>034-042>045-240100-
NORTHEAST NEBRASKA

CITY           SKY/WX    TMP DP  RH WIND       PRES   REMARKS
NORFOLK        HVY SNOW  30  28  92 NE13G23   29.68R VSB 1/4 WCI  20
6HR MIN TEMP:  30; 6HR MAX TEMP:  33; 6HR PCP:  0.12;

ALBION         HVY SNOW  32  29  90 N12       29.69F VSB 1/4 WCI  23
BLAIR          RAIN      37  35  94 NE21G28   29.58F WCI  26
FREMONT        LGT RAIN  36  35  96 N12G21    29.63S WCI  28
TEKAMAH        LGT RAIN  36  32  85 NE22G31   29.65F WCI  25
6HR MIN TEMP:  36; 6HR MAX TEMP:  38; 6HR PCP:  0.02;

WAYNE          LGT SNOW  31  31  99 NE14      29.70R VSB 3/4 WCI  21
$$

NEZ050>053-065>068-078-088>093-240100-
SOUTHEAST NEBRASKA

CITY           SKY/WX    TMP DP  RH WIND       PRES   REMARKS
LINCOLN        LGT RAIN  38  36  92 NE16      29.59S FOG     WCI  29
6HR MIN TEMP:  37; 6HR MAX TEMP:  42; 6HR PCP:  0.07;

OMAHA EPPLEY   TSTM      38  33  82 NE17      29.61R WCI  28
6HR MIN TEMP:  38; 6HR MAX TEMP:  43; 6HR PCP:  0.07;

BEATRICE       CLOUDY    40  39  96 NE16      29.53S FOG     WCI  32
FALLS CITY     CLOUDY    50  41  71 NE12      29.48R
6HR MIN TEMP:  46; 6HR MAX TEMP:  50;

NEBRASKA CITY  CLOUDY    42  36  80 NE17G29   29.53S
PLATTSMOUTH    CLOUDY    40  35  82 NE17G28   29.56S WCI  31
$$

NEZ044-045-051>053-067-240100-
OMAHA AREA

CITY           SKY/WX    TMP DP  RH WIND       PRES   REMARKS
OMAHA EPPLEY   TSTM      38  33  82 NE17      29.61R WCI  28
6HR MIN TEMP:  38; 6HR MAX TEMP:  43; 6HR PCP:  0.07;

BLAIR          RAIN      37  35  94 NE21G28   29.58F WCI  26
FREMONT        LGT RAIN  36  35  96 N12G21    29.63S WCI  28
MILLARD        LGT RAIN  39  37  89 NE3G24    29.61R
OFFUTT AFB     DRIZZLE   39  36  87 NE16G25   29.58R WCI  30
PLATTSMOUTH    CLOUDY    40  35  82 NE17G28   29.56S WCI  31
WAHOO          LGT RAIN  37  34  92 NE17G28   29.62R WCI  27
$$




USA.gov is the U.S. government's official web portal to all federal, state and local government web resources and services.